Regional Weather Roundup
Issued by NWS

Home | Current Version | Previous Version | Text Only | Print | Product List | Glossary Off
Versions: 1 2 3 4 5 6 7 8 9 10 11 12 13 14 15 16 17 18 19 20 21 22 23 24 25 26 27 28 29 30 31 32 33 34 35 36 37 38 39 40 41 42 43 44 45 46 47 48 49 50

000
ASUS43 KMPX 242001
RWRMN
WEATHER ROUNDUP FOR MINNESOTA
NATIONAL WEATHER SERVICE TWIN CITIES/CHANHASSEN MN
300 PM CDT SUN MAY 24 2015


NOTE: "FAIR" INDICATES FEW OR NO CLOUDS BELOW 12,000 FEET WITH NO
SIGNIFICANT WEATHER AND/OR OBSTRUCTIONS TO VISIBILITY. N/A MEANS
CURRENT SKY AND/OR WEATHER CONDITIONS ARE NOT AVAILABLE.

MNZ060>063-068>070-242100-
   Twin Cities Metro

CITY           SKY/WX    TMP DP  RH WIND       PRES   REMARKS
TWIN CITIES    LGT RAIN  61  58  90 E12       29.95F
ST PAUL        LGT RAIN  60  57  89 E9        29.96F FOG
CRYSTAL        LGT RAIN  62  57  83 E8        29.95F
BLAINE         LGT RAIN  63  61  94 E12       29.96F
LAKEVILLE      DRIZZLE   59  57  94 E14       29.94F
EDEN PRAIRIE   LGT RAIN  61  58  90 E12       29.93F
SOUTH ST PAUL  DRIZZLE   60  58  91 E9        29.95F
LAKE ELMO      RAIN      61  59  94 E9        29.98F
$$
MNZ001>005-007-008-013>017-022>024-027-028-242100-
   Northwest Minnesota

CITY           SKY/WX    TMP DP  RH WIND       PRES   REMARKS
BEMIDJI        CLOUDY    67  47  48 NE7       30.00F
HALLOCK        PTSUNNY   77  39  25 E5        29.97F
ROSEAU         PTSUNNY   79  39  24 E3        29.98F
WARROAD        PTSUNNY   77  43  29 SE8       29.98F
THIEF RVR FALL CLOUDY    73  45  35 SE6       29.99F
CROOKSTON      CLOUDY    75  48  38 E6        29.97F
FOSSTON        CLOUDY    70  46  43 E3        30.00F
DETROIT LAKES  CLOUDY    68  50  52 E7        29.98F
MOORHEAD       CLOUDY    72  48  43 E13       29.95F
PARK RAPIDS    CLOUDY    71  48  43 SE10G16   29.98F
MAHNOMEN       CLOUDY    70  47  45 E12       29.98F
$$
MNZ006-009>011-018-025>026-242100-
   North Central Minnesota

CITY           SKY/WX    TMP DP  RH WIND       PRES   REMARKS
BAUDETTE       PTSUNNY   77  42  28 NE3       29.98F
FLAG ISLAND    MOSUNNY   63  54  72 S7        29.97F
INTL FALLS     PTSUNNY   77  40  26 CALM      29.98F
WASKISH        CLOUDY    72  54  53 CALM      30.00S
BIG FORK       CLOUDY    73  48  40 S5        30.01F
LONGVILLE      CLOUDY    70  48  46 E8        29.99F
GRAND RAPIDS   CLOUDY    70  46  43 SE6       30.02F
CRANE LAKE     CLOUDY    75  37  25 N3        29.99F
ORR            PTSUNNY   77  36  22 CALM      29.97F
COOK           CLOUDY    75  43  31 SE3       30.00F
WALKER         CLOUDY    68  48  48 E3        30.00F
$$
MNZ012-019>021-037-242100-
   Northeast Minnesota

CITY           SKY/WX    TMP DP  RH WIND       PRES   REMARKS
DULUTH         CLOUDY    71  45  39 E7        30.01F
ELY            PTSUNNY   75  37  25 W8        29.99F
HIBBING        CLOUDY    71  45  39 S9        30.01F
EVELETH        CLOUDY    72  45  37 SW12      30.02F
DULUTH HARBOR  CLOUDY    61  48  63 CALM      30.01F
TWO HARBORS    CLOUDY    73  52  46 CALM      30.00F
GRAND MARAIS     N/A     50  40  68 SW5       30.01F
G MARAIS ARPRT MOSUNNY   70  37  30 S9        30.04F
$$
MNZ029>031-032-039>041-046>048-054>057-064-242100-
   West Central Minnesota

CITY           SKY/WX    TMP DP  RH WIND       PRES   REMARKS
FERGUS FALLS   CLOUDY    68  52  56 SE13      29.95F
WHEATON        CLOUDY    64  54  68 E15       29.94F
MORRIS         CLOUDY    63  57  82 E14       29.93F
ALEXANDRIA     LGT RAIN  61  56  83 E12       29.98F
ELBOW LAKE     LGT RAIN  62  56  80 E14       29.95F
WADENA         CLOUDY    66  52  59 SE9       29.97F
GLENWOOD       CLOUDY    61  57  88 E13       29.97F
APPLETON       LGT RAIN  63  57  82 E13       29.91F
BENSON         RAIN      61  55  82 SE10      29.93F
ORTONVILLE     LGT RAIN  61  57  88 E13G21    29.92F
MADISON        LGT RAIN  61  57  88 E12G18    29.91F
WILLMAR        LGT RAIN  61  59  94 E12       29.94F
$$
MNZ033>034-036-042>043-049>051-058-059-242100-
   Central Minnesota

CITY           SKY/WX    TMP DP  RH WIND       PRES   REMARKS
ST CLOUD       LGT RAIN  62  56  80 E8        29.97F
SAUK CENTRE    CLOUDY    61  56  83 E9        29.97F
PAYNESVILLE    LGT RAIN  58  56  90 NE9       29.96F
AITKIN         CLOUDY    70  52  52 E5        29.98F
PINE RIVER     CLOUDY    66  52  59 E10       30.02F
BRAINERD       CLOUDY    66  51  58 SE7       29.99F
STAPLES        CLOUDY    66  48  52 E6        29.98F
LONG PRAIRIE   LGT RAIN  61  55  82 NE6       29.98F
LITTLE FALLS   LGT RAIN  61  55  82 CALM      29.98F
LITCHFIELD     RAIN      63  61  94 E10G17    29.94F
BUFFALO        LGT RAIN  60  56  86 E10       29.96F
MAPLE LAKE     DRIZZLE   62  59  90 E8        29.97F
$$
MNZ037-044-045-052-053-242100-
   East Central Minnesota

CITY           SKY/WX    TMP DP  RH WIND       PRES   REMARKS
PRINCETON      LGT RAIN  63  57  82 E7        29.98F
MORA           LGT RAIN  63  55  77 S9        30.01F
CAMBRIDGE      LGT RAIN  64  54  68 SE5       29.97F
RUSH CITY      CLOUDY    64  57  78 SE3       30.00F
MOOSE LAKE     CLOUDY    70  48  46 SE5       29.98F
HINCKLEY       LGT RAIN  66  57  72 E6        29.99F
CLOQUET        CLOUDY    70  45  40 NE5       30.01F
MCGREGOR       CLOUDY    70  50  49 NE8       30.00F
$$
MNZ071>073-080-081-089-090-097-098-242100-
   Southwest Minnesota

CITY           SKY/WX    TMP DP  RH WIND       PRES   REMARKS
MONTEVIDEO     LGT RAIN  61  61 100 E14       29.92F
GRANITE FALLS  LGT RAIN  60  58  94 NE14      29.91F
CANBY          CLOUDY    60  58  94 E12       29.91F FOG
MARSHALL       CLOUDY    59  54  82 E12       29.88F
REDWOOD FALLS  LGT RAIN  60  58  92 E10       29.89F FOG
OLIVIA         LGT RAIN  57  54  88 E8        29.90F
PIPESTONE      CLOUDY    61  57  88 E12       29.87F
WINDOM         DRIZZLE   61  57  88 E13       29.87F
WORTHINGTON    CLOUDY    61  55  82 E16       29.85F
JACKSON        LGT RAIN  59  59 100 E13       29.86F
TRACY          CLOUDY    60  59  97 E13       29.89S FOG
SLAYTON        CLOUDY    59  59  99 E12       29.88F
$$
MNZ065>067-074>077-082>085-091>093-242100-
   South Central Minnesota

CITY           SKY/WX    TMP DP  RH WIND       PRES   REMARKS
MANKATO        CLOUDY    61  57  88 E13       29.90F
NEW ULM        DRIZZLE   59  59 100 E12       29.90F
ST JAMES       LGT RAIN  61  61 100 E14       29.89F
FAIRMONT       CLOUDY    59  54  82 E9        29.86F
GLENCOE        DRIZZLE   61  60  95 E9        29.92F
FARIBAULT      RAIN      61  57  88 E9G16     29.93F
OWATONNA       LGT RAIN  61  57  88 E12G18    29.91F
WASECA         HVY RAIN  59  57  94 E15       29.91F
ALBERT LEA     DRIZZLE   59  57  94 SE14      29.89F
$$
MNZ078>079-086>088-094>096-242100-
   Southeast Minnesota

CITY           SKY/WX    TMP DP  RH WIND       PRES   REMARKS
ROCHESTER      LGT RAIN  58  57  97 E16       29.94F FOG
RED WING       LGT RAIN  61  57  88 E8        29.94F
STANTON        LGT RAIN  61  58  88 E12       29.93F
DODGE CENTER   HVY RAIN  59  57  94 E16       29.92F
WINONA         RAIN      59  57  94 SE13      29.95F
AUSTIN         LGT RAIN  59  57  94 SE16      29.90F
PRESTON        LGT RAIN  57  55  94 SE13G20   29.94F
$$
ABBREVIATIONS USED IN REMARKS
   TC - TEMPERATURES IN CELSIUS
  WCI - WIND CHILL INDEX
   HX - HEAT INDEX
  VSB - VISIBILITY
$$


USA.gov is the U.S. government's official web portal to all federal, state and local government web resources and services.